This demonstration page uses our WeatherBlox Daily Observations layout. Learn more.

39.29038, -76.61219

Hourly Observations for April 2, 2016

Temp ( °F °C ) Dew Point ( °F °C ) Humidity (%) Winds ( mph kmh ) Pressure ( in mb ) Visibility ( mi km ) Precip ( " mm )
12:54 am 00:54 undefined 67 19.4 40 4.4 37 37 undefined N/A 29.65 1004 N/A 0 0
1:54 am 01:54 undefined 66 18.9 40 4.4 39 39 undefined N/A 29.65 1004 N/A 0 0
2:54 am 02:54 undefined 64 17.8 40 4.4 41 41 undefined N/A 29.62 1003 N/A 0 0
3:54 am 03:54 undefined 64 17.8 37 2.8 37 37 undefined N/A 29.62 1003 N/A 0 0
4:54 am 04:54 undefined 59 15 38 3.3 46 46 undefined N/A 29.61 1003 N/A 0 0
5:54 am 05:54 undefined 57 13.9 37 2.8 47 47 undefined N/A 29.6 1002 N/A 0 0
6:54 am 06:54 undefined 55 12.8 38 3.3 53 53 undefined N/A 29.62 1003 N/A 0 0
7:54 am 07:54 undefined 51 10.6 42 5.6 71 71 undefined N/A 29.65 1004 N/A 0.03 0.762
8:54 am 08:54 undefined 50 10 44 6.7 80 80 undefined N/A 29.65 1004 N/A 0.06 1.524
9:54 am 09:54 undefined 50 10 43 6.1 77 77 undefined N/A 29.65 1004 N/A 0.02 0.508
10:54 am 10:54 undefined 51 10.6 43 6.1 74 74 undefined N/A 29.64 1004 N/A 0 0
11:54 am 11:54 undefined 54 12.2 42 5.6 64 64 undefined N/A 29.62 1003 N/A 0 0
12:54 pm 12:54 undefined 59 15 36 2.2 42 42 undefined N/A 29.58 1002 N/A 0 0
1:54 pm 13:54 undefined 59 15 36 2.2 42 42 undefined N/A 29.52 1000 N/A 0 0
2:54 pm 14:54 undefined 63 17.2 34 1.1 34 34 undefined N/A 29.48 998 N/A 0 0
3:54 pm 15:54 undefined 62 16.7 30 -1.1 30 30 undefined N/A 29.41 996 N/A 0 0
4:54 pm 16:54 undefined 63 17.2 30 -1.1 29 29 undefined N/A 29.4 996 N/A 0 0
5:54 pm 17:54 undefined 62 16.7 28 -2.2 28 28 undefined N/A 29.38 995 N/A 0 0
6:54 pm 18:54 undefined 58 14.4 45 7.2 62 62 undefined N/A 29.37 995 N/A 0 0
7:54 pm 19:54 undefined 56 13.3 46 7.8 70 70 undefined N/A 29.38 995 N/A 0 0
8:54 pm 20:54 undefined 56 13.3 47 8.3 72 72 undefined N/A 29.39 995 N/A 0 0
9:54 pm 21:54 undefined 58 14.4 38 3.3 48 48 undefined N/A 29.36 994 N/A 0 0
10:54 pm 22:54 undefined 49 9.4 36 2.2 61 61 undefined N/A 29.42 996 N/A 0.01 0.254
11:54 pm 23:54 undefined 45 7.2 31 -0.6 58 58 undefined N/A 29.47 998 N/A 0.02 0.508

Powered by AerisWeather